Wind_Speed
19 19 20 20 20 19 18 17 16 14 14 12 13 12 12 12 12 11 11 11 12 12 12 11 10 10 10 10 10 11 11 12 13 14 15 16 17 19 20 22 23 25 26 27
20 20 21 21 20 20 19 18 16 14 14 14 14 14 13 12 12 12 12 12 12 13 13 12 11 11 12 12 12 13 13 14 15 16 17 18 20 21 23 24 25 27 27 28
20 20 21 22 19 20 20 19 18 16 14 14 14 15 14 13 13 13 13 13 13 13 13 13 13 13 14 14 15 15 16 16 17 19 20 21 22 24 25 26 27 28 29 30
21 21 22 18 19 19 18 18 17 16 14 15 15 15 15 15 15 15 15 15 15 15 15 15 15 15 16 17 17 18 19 19 20 21 23 24 25 26 27 28 29 30 31 32
23 23 21 19 18 18 18 17 17 17 16 16 17 17 16 16 17 17 17 17 17 17 17 17 17 18 19 19 20 20 21 22 22 23 25 26 27 28 29 30 31 32 33 34
22 22 21 19 19 20 19 19 17 17 17 17 17 17 17 18 19 19 19 19 18 18 19 19 20 21 21 22 22 23 24 24 25 26 27 28 29 30 31 32 32 33 34 35
22 22 20 19 20 20 21 18 19 20 19 19 18 18 18 19 20 21 21 21 20 21 21 21 22 23 24 24 24 25 25 26 27 28 29 30 31 32 33 34 34 35 36 37
22 21 18 18 19 20 20 19 19 20 20 20 20 20 21 21 21 22 23 23 22 22 23 23 24 24 25 25 26 27 27 28 29 30 32 33 33 34 35 36 36 37 38 38
20 19 18 18 19 19 20 20 21 21 21 21 22 23 24 24 24 24 24 24 24 24 24 24 25 25 26 26 27 29 30 31 32 32 33 34 35 36 36 37 38 39 40 40
20 19 19 20 20 20 21 22 22 22 22 22 23 23 25 25 25 25 26 26 26 26 26 26 27 27 27 28 29 31 32 32 33 34 35 36 37 38 39 40 41 41 42 43
20 21 21 21 22 22 23 23 23 23 23 24 25 25 26 27 27 27 27 28 27 27 28 28 28 29 29 30 31 32 33 34 35 36 37 38 40 41 41 42 43 44 44 45
20 21 22 22 22 23 23 23 23 24 24 25 26 26 27 28 28 28 28 29 29 28 28 29 30 30 31 32 33 34 35 37 38 38 39 41 42 43 44 45 46 46 47 47
19 20 21 22 23 23 24 25 25 25 25 25 26 26 27 28 28 29 29 29 29 29 30 31 31 32 32 33 34 36 37 39 40 41 41 42 43 44 45 46 47 48 49 49
20 21 20 21 22 23 24 25 26 25 25 26 26 26 26 27 27 28 28 28 28 29 31 32 32 33 34 36 37 38 40 41 42 42 43 44 45 46 48 48 48 49 50 52
20 21 20 22 23 24 25 26 26 26 26 25 25 26 27 27 27 28 28 28 29 30 31 32 33 34 36 37 39 40 41 43 43 44 45 46 47 48 49 50 51 52 52 53
21 21 21 22 23 24 25 25 24 24 25 25 25 26 27 28 28 28 28 29 30 31 32 34 35 36 38 39 40 41 43 44 45 46 47 48 49 50 51 52 53 54 54 55
20 20 21 22 23 24 25 24 23 23 23 24 25 25 26 27 28 29 30 31 32 33 35 36 37 38 40 41 42 43 45 46 47 48 49 50 51 52 53 54 55 56 56 57
19 19 20 20 21 23 24 24 24 24 24 24 25 26 27 27 29 30 32 33 34 35 37 38 39 40 41 43 44 45 47 48 49 50 51 52 53 54 55 56 57 57 57 56
20 19 19 20 21 21 22 23 23 24 25 26 27 27 27 29 30 32 33 35 36 37 38 39 41 42 44 45 46 47 48 50 51 52 54 55 55 56 56 56 56 56 56 54
20 20 20 20 21 21 22 24 24 25 26 27 28 29 30 31 32 34 35 36 38 39 40 41 43 44 46 47 48 49 50 52 53 54 54 55 55 56 55 55 55 54 52 51
20 20 21 22 23 23 24 25 25 26 27 28 29 30 32 33 34 35 37 38 39 41 42 44 45 46 47 48 49 50 51 52 53 54 54 55 55 55 55 54 53 50 49 47
21 22 23 25 26 26 26 27 27 28 29 30 31 32 34 35 36 38 39 41 42 43 44 46 47 48 48 49 50 51 52 53 54 54 55 55 55 54 53 51 49 47 45 43
23 25 25 26 26 27 28 29 30 31 32 33 34 35 36 37 39 40 42 43 44 44 45 46 47 48 49 50 51 52 52 53 53 54 54 53 52 51 48 46 44 41 39 37
27 27 28 28 29 30 32 33 33 34 34 35 36 37 38 39 41 42 43 44 45 45 46 48 49 49 50 50 51 51 51 51 51 51 50 49 47 45 42 40 38 36 34 32
30 30 31 31 32 33 34 34 35 35 36 37 38 39 40 41 42 43 44 45 46 46 47 48 48 49 49 49 49 49 49 48 48 47 46 44 41 39 37 35 34 32 30 28
31 31 32 33 34 34 35 36 36 37 38 38 39 41 42 43 44 44 45 46 46 46 47 47 47 46 46 46 46 45 45 45 44 43 41 38 36 34 32 30 29 27 25 23
34 34 34 35 36 36 37 37 38 39 40 40 41 42 43 43 44 44 44 44 44 44 44 44 44 44 43 43 42 42 41 40 39 37 35 32 31 29 27 26 25 23 20 19
Wind_Direction
249 252 255 259 262 265 269 269 267 261 256 254 255 258 262 256 246 241 239 236 235 234 234 236 239 243 249 254 260 265 271 276 282 287 291 295 298 303 306 308 310 312 313 315
251 251 255 259 261 264 267 267 265 261 257 252 252 255 259 257 250 245 242 240 241 238 238 241 245 250 255 260 265 270 275 281 285 289 292 296 299 302 305 307 308 310 310 312
248 252 257 258 261 265 265 264 264 261 259 253 253 255 254 252 251 248 245 245 244 244 244 246 252 256 260 264 269 273 277 282 286 290 293 296 298 300 302 304 306 308 309 310
249 252 257 261 259 262 264 262 260 259 257 253 252 253 252 249 249 249 249 250 251 251 251 254 258 262 266 270 273 276 279 282 285 289 292 295 297 300 301 303 305 307 307 309
251 253 259 260 259 262 264 263 261 259 257 254 252 252 251 250 249 251 252 252 253 254 257 259 261 264 268 271 274 277 280 282 285 288 291 293 296 298 300 302 303 304 306 307
253 257 261 259 258 259 261 261 260 258 252 249 254 256 254 253 252 252 251 251 256 259 261 263 266 268 269 272 275 277 280 283 286 288 290 293 295 297 299 301 302 303 304 306
256 260 261 258 255 254 257 261 257 254 252 249 252 251 252 255 257 256 254 253 257 261 264 266 270 272 272 276 278 280 282 285 288 289 291 293 295 297 299 300 302 303 304 306
252 256 254 250 250 252 255 254 254 255 255 252 250 250 250 254 256 255 258 257 258 262 266 269 271 273 274 277 280 282 284 287 288 289 291 293 295 297 298 300 301 302 303 304
246 250 251 251 250 250 252 251 252 254 255 254 251 252 251 254 255 255 257 259 260 263 267 270 272 274 275 278 281 283 285 287 289 290 291 293 295 296 298 300 301 302 303 304
246 247 250 250 250 251 251 251 253 254 256 255 251 255 254 256 258 257 256 259 261 264 266 269 271 274 276 279 282 284 285 287 289 290 291 293 295 296 298 299 300 301 302 303
248 250 251 250 249 250 250 252 253 255 256 254 254 256 258 257 257 258 259 260 261 264 266 269 272 274 277 280 282 284 284 287 289 290 292 294 295 296 298 299 299 300 301 302
247 247 250 250 250 251 251 252 254 255 257 255 256 260 259 258 257 257 258 260 262 264 268 270 274 277 279 281 283 284 286 288 289 290 292 293 295 296 298 299 299 299 300 300
246 248 249 250 252 254 252 252 255 256 258 256 256 257 258 258 259 259 258 260 262 265 268 271 273 276 279 282 284 284 286 287 289 291 292 293 294 295 296 297 298 298 299 300
250 253 255 254 253 253 253 253 253 254 255 255 257 258 259 258 259 259 261 264 265 266 268 271 275 278 280 282 284 285 287 288 289 290 292 292 293 294 295 296 296 297 298 299
254 255 257 255 254 255 255 254 254 256 257 257 259 259 258 257 258 260 264 267 269 271 272 274 277 280 282 283 285 286 287 288 289 290 291 293 293 294 295 295 296 297 298 298
254 254 254 255 256 255 255 255 256 257 256 257 259 260 260 260 261 263 267 269 271 273 275 277 279 282 283 285 286 287 288 289 289 290 292 293 293 294 295 295 296 297 297 298
256 255 256 254 255 255 257 257 257 260 261 261 261 262 262 262 264 267 269 271 274 276 278 280 282 284 285 286 287 287 288 289 291 292 292 293 294 294 295 296 296 297 297 298
256 257 257 256 254 254 256 257 258 261 263 264 264 265 265 266 269 271 273 275 278 279 281 282 284 285 285 286 287 288 289 290 291 292 293 294 295 295 295 296 296 297 297 298
257 256 257 256 256 257 259 259 259 261 264 265 266 267 269 271 273 275 276 278 280 282 283 284 285 286 287 288 289 290 291 291 292 293 294 295 295 295 296 296 297 297 298 298
255 256 257 258 257 258 261 262 262 264 267 269 270 272 274 276 278 279 281 282 283 284 285 286 287 288 288 289 290 291 292 293 294 295 295 296 296 296 297 297 297 298 298 298
255 257 261 262 262 264 266 268 269 271 272 273 274 276 278 280 281 283 284 284 285 286 287 288 288 289 290 291 291 292 293 294 295 295 296 296 297 297 297 297 298 298 298 298
259 260 263 264 265 266 270 272 273 275 278 279 281 282 283 284 285 286 286 287 288 288 289 289 290 291 292 292 293 294 294 295 295 296 296 297 297 297 297 297 297 297 298 297
264 265 266 266 267 270 273 275 278 280 282 284 285 286 286 287 287 288 288 289 289 290 290 291 291 292 292 293 294 294 295 295 296 297 297 298 298 297 297 296 296 297 297 296
267 268 268 269 272 275 278 280 282 283 284 285 286 287 288 289 290 290 290 290 290 291 291 292 292 293 294 294 295 295 296 297 297 298 299 299 299 298 297 296 296 296 296 295
270 272 275 277 278 280 282 284 285 286 287 288 288 289 289 290 291 291 291 291 292 292 293 293 294 295 295 295 296 297 297 298 299 299 300 299 299 298 297 295 295 295 294 293
274 275 278 280 282 283 284 285 287 287 288 288 289 289 290 291 291 291 291 292 292 293 294 294 295 296 296 297 297 298 298 299 300 299 299 298 298 298 296 295 295 294 293 290
277 278 280 282 283 284 285 286 287 288 288 289 290 291 291 291 291 292 292 293 293 294 294 295 296 296 297 298 299 299 300 301 301 301 300 299 298 298 297 296 295 293 291 289
Height
5814 5816 5818 5819 5820 5821 5822 5823 5824 5825 5826 5827 5827 5828 5828 5828 5828 5829 5829 5830 5831 5831 5831 5832 5832 5832 5833 5833 5833 5833 5832 5832 5831 5830 5829 5828 5826 5824 5823 5821 5818 5816 5813 5810
5809 5811 5812 5813 5815 5816 5817 5818 5819 5821 5823 5824 5824 5824 5825 5825 5825 5826 5826 5827 5827 5828 5828 5829 5829 5829 5829 5829 5829 5829 5828 5827 5826 5825 5824 5822 5821 5819 5817 5815 5812 5810 5807 5804
5804 5806 5806 5807 5810 5811 5812 5814 5815 5817 5820 5820 5821 5821 5821 5822 5822 5823 5823 5824 5824 5824 5825 5825 5825 5825 5825 5825 5825 5824 5823 5822 5821 5820 5818 5817 5815 5813 5811 5809 5806 5803 5800 5797
5799 5801 5801 5805 5805 5805 5807 5808 5810 5812 5814 5815 5816 5817 5817 5818 5818 5819 5820 5820 5820 5820 5821 5821 5821 5821 5821 5820 5820 5819 5818 5817 5815 5814 5812 5810 5809 5806 5804 5802 5799 5796 5793 5789
5793 5794 5795 5798 5799 5800 5802 5803 5805 5807 5808 5810 5811 5812 5813 5813 5814 5814 5815 5815 5816 5816 5816 5816 5816 5816 5815 5815 5814 5813 5812 5810 5809 5807 5805 5804 5802 5799 5797 5794 5791 5788 5785 5781
5787 5788 5790 5794 5794 5794 5797 5798 5800 5801 5803 5804 5805 5807 5808 5808 5808 5809 5809 5810 5810 5811 5811 5811 5811 5810 5809 5809 5808 5807 5805 5804 5802 5800 5798 5796 5794 5792 5789 5786 5783 5780 5777 5773
5781 5782 5785 5787 5788 5789 5792 5795 5795 5795 5797 5798 5799 5801 5802 5802 5803 5803 5803 5804 5804 5804 5805 5804 5804 5804 5803 5802 5801 5800 5798 5797 5795 5793 5791 5789 5786 5784 5781 5778 5775 5771 5768 5764
5775 5777 5781 5781 5781 5783 5785 5787 5788 5789 5791 5792 5793 5794 5795 5795 5796 5797 5797 5797 5797 5798 5798 5798 5797 5796 5796 5795 5794 5793 5791 5789 5787 5785 5783 5781 5778 5775 5772 5769 5766 5762 5758 5754
5770 5774 5774 5774 5776 5777 5779 5780 5782 5783 5784 5785 5786 5787 5788 5788 5789 5789 5790 5790 5790 5791 5790 5790 5790 5789 5788 5787 5786 5785 5783 5781 5779 5777 5774 5772 5769 5766 5763 5760 5756 5752 5748 5744
5764 5767 5767 5768 5770 5771 5773 5774 5775 5776 5778 5779 5779 5780 5781 5781 5781 5782 5782 5783 5783 5783 5783 5782 5782 5781 5780 5779 5778 5776 5774 5772 5770 5768 5765 5763 5760 5756 5753 5750 5746 5742 5738 5734
5758 5760 5761 5762 5763 5765 5766 5767 5768 5769 5770 5771 5772 5772 5773 5774 5774 5774 5775 5775 5775 5775 5775 5774 5774 5773 5772 5771 5769 5767 5765 5763 5761 5759 5756 5753 5750 5746 5742 5739 5734 5731 5727 5722
5751 5753 5755 5756 5757 5758 5759 5760 5761 5762 5762 5763 5764 5764 5765 5765 5766 5766 5767 5767 5767 5767 5767 5766 5765 5764 5763 5762 5760 5758 5756 5754 5751 5749 5746 5742 5739 5735 5731 5727 5723 5719 5715 5710
5744 5746 5748 5749 5750 5751 5752 5753 5754 5754 5755 5756 5756 5757 5757 5758 5758 5758 5758 5758 5758 5758 5758 5757 5756 5755 5754 5752 5750 5748 5746 5743 5740 5738 5734 5731 5727 5724 5720 5716 5711 5706 5702 5697
5738 5740 5741 5742 5743 5743 5744 5745 5746 5746 5747 5748 5748 5749 5749 5749 5750 5750 5750 5750 5749 5749 5749 5748 5747 5746 5744 5742 5740 5738 5735 5732 5729 5726 5723 5719 5716 5712 5708 5704 5700 5694 5689 5683
5732 5733 5734 5735 5735 5736 5737 5737 5738 5739 5739 5740 5740 5740 5741 5741 5741 5741 5741 5741 5741 5740 5739 5739 5738 5736 5734 5732 5730 5727 5724 5721 5718 5715 5711 5707 5703 5699 5694 5690 5686 5681 5676 5670
5725 5726 5727 5728 5729 5729 5729 5730 5730 5731 5731 5732 5732 5732 5732 5733 5733 5733 5733 5732 5732 5731 5730 5729 5727 5725 5723 5721 5718 5715 5712 5709 5705 5702 5698 5694 5690 5685 5681 5676 5671 5666 5661 5655
5719 5720 5721 5721 5722 5722 5722 5722 5723 5723 5724 5724 5725 5725 5725 5725 5725 5724 5724 5724 5723 5722 5720 5718 5717 5714 5712 5709 5707 5703 5700 5696 5693 5689 5684 5680 5675 5671 5666 5661 5656 5650 5645 5639
5713 5713 5714 5714 5714 5715 5715 5716 5716 5716 5717 5717 5717 5717 5717 5717 5716 5716 5715 5714 5713 5711 5709 5707 5705 5703 5700 5697 5694 5691 5687 5683 5679 5674 5670 5665 5660 5655 5650 5645 5640 5634 5629 5623
5706 5707 5707 5708 5708 5708 5709 5709 5709 5709 5709 5709 5709 5709 5708 5708 5708 5706 5705 5703 5702 5700 5698 5695 5693 5690 5687 5684 5680 5677 5673 5669 5664 5659 5655 5650 5645 5639 5634 5628 5623 5618 5612 5607
5700 5701 5701 5701 5702 5702 5702 5702 5701 5701 5701 5701 5701 5700 5699 5698 5697 5696 5695 5693 5691 5689 5686 5683 5680 5677 5674 5670 5666 5662 5658 5653 5649 5644 5639 5634 5628 5623 5618 5612 5607 5602 5597 5592
5694 5694 5694 5694 5694 5694 5694 5694 5694 5693 5693 5692 5691 5690 5689 5688 5687 5685 5683 5681 5679 5676 5673 5670 5667 5663 5659 5655 5651 5647 5642 5638 5633 5628 5623 5618 5612 5607 5602 5597 5591 5587 5582 5577
5687 5687 5687 5687 5686 5686 5686 5685 5685 5684 5683 5682 5681 5680 5679 5677 5675 5673 5671 5668 5666 5662 5659 5656 5652 5648 5644 5640 5636 5632 5627 5622 5617 5612 5607 5601 5596 5591 5586 5581 5577 5572 5568 5564
5679 5679 5679 5678 5678 5677 5677 5676 5675 5674 5673 5672 5670 5669 5667 5665 5663 5661 5658 5655 5652 5649 5645 5641 5638 5634 5630 5625 5621 5616 5611 5606 5601 5596 5591 5585 5580 5575 5571 5567 5563 5559 5555 5552
5670 5670 5670 5669 5669 5668 5668 5667 5665 5664 5662 5661 5659 5657 5655 5653 5650 5647 5644 5641 5638 5635 5631 5627 5623 5619 5614 5610 5605 5601 5596 5591 5586 5580 5575 5570 5565 5561 5557 5553 5550 5547 5544 5541
5661 5661 5660 5660 5659 5658 5657 5656 5654 5653 5651 5649 5647 5645 5643 5640 5637 5634 5631 5628 5624 5620 5617 5612 5608 5604 5599 5595 5590 5586 5581 5576 5571 5566 5561 5556 5552 5548 5545 5542 5539 5536 5534 5532
5651 5651 5650 5649 5648 5647 5646 5644 5643 5641 5640 5637 5635 5632 5630 5627 5624 5620 5617 5614 5610 5606 5602 5598 5594 5590 5585 5581 5576 5571 5567 5562 5557 5552 5548 5544 5541 5537 5534 5532 5529 5527 5526 5524
5642 5641 5640 5639 5638 5636 5635 5633 5631 5629 5627 5625 5622 5620 5616 5613 5610 5606 5603 5600 5596 5592 5588 5585 5581 5576 5572 5568 5563 5559 5554 5549 5545 5541 5537 5534 5531 5528 5525 5523 5521 5519 5518 5517